Regional Weather Roundup
Issued by NWS

Home | Current Version | Previous Version | Text Only | Print | Product List | Glossary Off
Versions: 1 2 3 4 5 6 7 8 9 10 11 12 13 14 15 16 17 18 19 20 21 22 23 24 25 26 27 28 29 30 31 32 33 34 35 36 37 38 39 40 41 42 43 44 45 46 47 48 49 50

000
ASUS43 KBIS 200702
RWRND

NORTH DAKOTA REGIONAL WEATHER ROUNDUP
NATIONAL WEATHER SERVICE BISMARCK ND
200 AM CDT FRI APR 20 2018

NOTE: "FAIR" INDICATES FEW OR NO CLOUDS BELOW 12,000 FEET WITH NO
SIGNIFICANT WEATHER AND/OR OBSTRUCTIONS TO VISIBILITY.


NDZ001>003-009>011-017-200800-
NORTHWEST NORTH DAKOTA

CITY           SKY/WX    TMP DP  RH WIND       PRES   REMARKS
WILLISTON      CLOUDY    38  33  82 E5        30.26S
MINOT          PTCLDY    34  31  88 SE3       30.31F
MINOT AFB      PTCLDY    33  33  99 CALM      30.30F
$$

NDZ018>021-031>035-040>046-200800-
SOUTHWEST NORTH DAKOTA

CITY           SKY/WX    TMP DP  RH WIND       PRES   REMARKS
BISMARCK       MOCLDY    34  31  88 SE7       30.34R
DICKINSON      PTCLDY    35  28  75 SE12      30.23F
GARRISON         N/A     32  30  92 E7        30.30S
HETTINGER ARPT MOCLDY    36  28  73 E12       30.25F
$$

NDZ004>008-012>016-024-026-027-054-200800-
NORTHEAST NORTH DAKOTA

CITY           SKY/WX    TMP DP  RH WIND       PRES   REMARKS
GRAND FORKS    FAIR      33  32  96 S6        30.38S
GRND FRKS AFB  FAIR      33  31  91 CALM      30.38R
DEVILS LAKE    FAIR      33  30  88 E5        30.37S
$$

NDZ022-023-025-028>030-036>039-047>053-200800-
SOUTHEAST NORTH DAKOTA

CITY           SKY/WX    TMP DP  RH WIND       PRES   REMARKS
FARGO          FAIR      38  31  76 S8        30.40S
JAMESTOWN      PTCLDY    37  30  75 S9        30.36F
$$





USA.gov is the U.S. government's official web portal to all federal, state and local government web resources and services.